Tracking 23764 objects as of 17-Oct-2021
HD Live streaming from Space Station
objects crossing your sky now

IRIDIUM 33 DEB

Track IRIDIUM 33 DEB now!
10-day predictions


NORAD ID: 35628
Int'l Code: 1997-051RA
Perigee: 733.4 km
Apogee: 761.3 km
Inclination: 86.4 °
Period: 99.6 minutes
Semi major axis: 7118 km
RCS: 0.0194 m2 (small)
Launch date: September 14, 1997
Source: United States (US)
Launch site: TYURATAM MISSILE AND SPACE COMPLEX (TTMTR)

Note: This is SATELLITE DEBRIS
aabbcc
Your satellite tracking list
Your tracking list is empty




NASA's NSSDC Master Catalog

Two Line Element Set (TLE):
1 35628U 97051RA  21289.33038020  .00001031  00000-0  28617-3 0  9999
2 35628  86.3613 309.9978 0019599  36.8090 323.4453 14.45545978650521
Source of the keplerian elements: AFSPC